This is the latest recevied weather packets stored in our database for station/object KD7JB. If no packets are shown the sender has not sent any weather packets the latest 1 day(s).
| Time | Temp. | Humidity | Pressure | Rain* | Wind** | Luminosity | Snow |
|---|---|---|---|---|---|---|---|
| 1778036916 | 17.22° C | 50% | 1174 hPa | 0 mm | 0.89 m/s, 288° | 8 W/m² | - |
| 1778036615 | 17.22° C | 49% | 1174 hPa | 0 mm | 0.89 m/s, 293° | 10 W/m² | - |
| 1778036311 | 17.78° C | 48% | 1173.9 hPa | 0 mm | 1.79 m/s, 278° | 13 W/m² | - |
| 1778036007 | 18.33° C | 47% | 1173.8 hPa | 0 mm | 0.45 m/s, 333° | 15 W/m² | - |
| 1778035705 | 18.33° C | 47% | 1174 hPa | 0 mm | 1.79 m/s, 278° | 18 W/m² | - |
| 1778035401 | 18.89° C | 46% | 1174 hPa | 0 mm | 2.24 m/s, 284° | 21 W/m² | - |
| 1778035097 | 18.89° C | 46% | 1173.9 hPa | 0 mm | 1.79 m/s, 276° | 24 W/m² | - |
| 1778034794 | 18.89° C | 45% | 1173.8 hPa | 0 mm | 1.79 m/s, 275° | 26 W/m² | - |
| 1778034491 | 19.44° C | 45% | 1174 hPa | 0 mm | 3.58 m/s, 286° | 29 W/m² | - |
| 1778034189 | 19.44° C | 44% | 1174 hPa | 0 mm | 2.68 m/s, 300° | 33 W/m² | - |
| 1778033887 | 19.44° C | 44% | 1173.7 hPa | 0 mm | 2.24 m/s, 266° | 38 W/m² | - |
| 1778033583 | 20° C | 44% | 1173.9 hPa | 0 mm | 2.68 m/s, 288° | 44 W/m² | - |
| 1778033280 | 20° C | 43% | 1173.9 hPa | 0 mm | 2.24 m/s, 305° | 50 W/m² | - |
| 1778032978 | 20° C | 42% | 1173.9 hPa | 0 mm | 3.58 m/s, 297° | 57 W/m² | - |
| 1778032675 | 20° C | 42% | 1173.8 hPa | 0 mm | 3.58 m/s, 259° | 64 W/m² | - |
| 1778032374 | 20° C | 42% | 1173.8 hPa | 0 mm | 2.68 m/s, 274° | 72 W/m² | - |
| 1778032069 | 20.56° C | 42% | 1174 hPa | 0 mm | 3.58 m/s, 274° | 80 W/m² | - |
| 1778031766 | 20° C | 42% | 1173.6 hPa | 0 mm | 2.24 m/s, 296° | 89 W/m² | - |
| 1778031463 | 20° C | 42% | 1173.8 hPa | 0 mm | 3.58 m/s, 276° | 72 W/m² | - |
| 1778031160 | 20.56° C | 41% | 1173.7 hPa | 0 mm | 3.13 m/s, 271° | 90 W/m² | - |
| 1778030856 | 20.56° C | 41% | 1174 hPa | 0 mm | 4.47 m/s, 282° | 130 W/m² | - |
| 1778030554 | 20.56° C | 42% | 1173.8 hPa | 0 mm | 2.68 m/s, 234° | 111 W/m² | - |
| 1778030251 | 20.56° C | 40% | 1173.8 hPa | 0 mm | 4.47 m/s, 264° | 156 W/m² | - |
| 1778029947 | 21.11° C | 40% | 1173.9 hPa | 0 mm | 2.68 m/s, 291° | 169 W/m² | - |
| 1778029646 | 20.56° C | 42% | 1173.8 hPa | 0 mm | 1.34 m/s, 283° | 181 W/m² | - |
* Rain latest hour (hover to see other rain measurements)
** Current wind speed in m/s (hover to see current wind gust speed)